Location: Paralde Spring
(38.5794°N, 119.0140°W)
Time: 22:33:51
(UTC+00:00)

Cosmos 1727 Rocket - Pass Details

Date: 18 September 2020
Orbit: 960 x 997 km, 82.9° (Epoch: 20 October)

Event Time Altitude Azimuth Distance (km) Brightness Sun altitude
Rises 12:12:42 0° 186° (S) 3,700 6.8 -17.8°
Reaches altitude 10° 12:15:13 10° 187° (S) 2,755 6.1 -17.3°
Maximum altitude 12:21:34 86° 275° (W) 1,004 4.0 -16.1°
Drops below altitude 10° 12:27:56 10° 6° (N) 2,764 6.6 -14.9°
Sets 12:30:28 0° 7° (N) 3,712 7.3 -14.4°
